0 HST 1 20580U 90037B 26161.23228164 .00005211 00000-0 16320-3 0 9992 2 20580 28.4709 128.1050 0001977 72.5591 287.5221 15.30670250787500 0 ISS (ZARYA) 1 25544U 98067A 26161.15832933 .00007673 00000-0 14376-3 0 9997 2 25544 51.6328 334.8807 0006746 152.8443 207.2900 15.49693861570666 0 CXO 1 25867U 99040B 26164.08641897 .00000611 00000-0 00000-0 0 9990 2 25867 56.1211 116.7320 7849026 310.2825 0.0985 0.37806491 17304